ATLAS 5 CENTAUR DEB, 43960

Orbit data source: Space-Track

ATLAS 5 CENTAUR DEB, 43960 is space debris in HEO originally from a launch on Wed, 17 Sep 2014 UTC launched from the Air Force Eastern Test Range (AFETR). Debris objects in space refer to the collection of defunct objects orbiting the Earth. Examples of debris include non-operational satellites, rocket bodies, and fragments generated from explosions, collisions, or faulty payload assembly.

Loading next visibility...
Identifier
43960, 2014-055P
Orbit
HEO
Country
Flag of USUS
Related business
Flag of USUnited Launch Alliance/Lockheed Martin (US)
Manufacturer
Unknown
Mission
Spacecraft
Bus & Motor
Unknown
Mass
Unknown
Launch date (UTC)
2014-09-17 (12 years ago)
Launch vehicle
Unknown
Launch site
Air Force Eastern Test Range (AFETR)
Object type
Payload
Rocket body
Debris
Shape & HBR
Unknown shape, 1.1 m
Radar Cross Section
Medium (>0.1 m² and <1 m²)

Expand to show TLE details & history
Last TLE update: 2 days ago

TLE from 2 days ago
0 ATLAS 5 CENTAUR DEB
1 43960U 14055P   26235.31640548 -.00000182  00000-0  00000-0 0  9998
2 43960  20.2121 131.4850 5015522 184.8047 167.5039  1.81616098 52868
Epoch: 2026-08-23T07:35Z
TLE epoch observation values (Epoch: 2026-08-23T07:35:37.433Z)
Latitude
0.00006°
Longitude
45.97799°
Altitude
36,102.825 km
Speed
2.173 km/s
True Right ascension
08h 45m 59s
True Declination
0° 00' 00"
Sunlit
Object was in daylight at epoch
Visualization orbit readout
Latitude
Unknown
Longitude
Unknown
Altitude
Unknown
Speed
Unknown
Apparent Right ascension
Unknown
Apparent Declination
Unknown
Sunlit
N/A
Visualization observer readout
Local Sidereal Time
01:51:56
Azimuth
Unknown
Elevation
Unknown
Doppler factor
Unknown
Orbital elements
Apogee altitude
36,234.306 km
Perigee altitude
7,767.278 km
Semi-major axis
28,378.929 km
Eccentricity
0.50155
Inclination
20.2121°
RAAN
131.485°
Arg. of periapsis
184.8047°
True anomaly
175.19386°
Mean anomaly
167.5039°
Eccentric anomaly
171.66808°
Mean motion
0.45399 °/min
Orbital period
792.96 mins
BSTAR
0
Loading maneuver chart data...
Computing Atmospheric mass density...

Documentation

Showing up to 5 results
|